FW2982 Weather Reports


time (UTC)temp
C
wind
direction
speed
KPH
gust
KPH
rain 1hr
cm
rain 24hr
cm
rain mn
cm
humidity
%
barometer
mb
20260905061152 21 52 0.0 0.0 0.00 0.89 0.00 97 1010.0
20260905060720 21 52 0.0 0.0 0.00 0.91 0.00 97 1010.2
20260905060710 21 52 0.0 0.0 0.00 0.91 0.00 97 1010.0
20260905055652 21 52 0.0 0.0 0.00 0.91 0.00 96 1010.0
20260905055153 21 52 0.0 0.0 0.00 0.94 0.00 96 1010.1
20260905054653 21 52 0.0 0.0 0.00 0.94 0.00 97 1010.1
20260905054432 21 52 0.0 0.0 0.00 0.97 0.00 96 1010.2
20260905053653 21 52 0.0 0.0 0.00 0.97 0.00 96 1010.4
20260905053152 21 52 0.0 0.0 0.00 0.97 0.00 96 1010.5
20260905052652 21 52 0.0 0.0 0.00 0.99 0.00 96 1010.3
20260905052152 21 52 0.0 0.0 0.00 0.99 0.00 97 1010.3
20260905051643 21 52 0.0 0.0 0.00 1.02 0.00 96 1010.4
20260905051420 21 52 0.0 0.0 0.00 1.02 0.00 97 1010.4
20260905050917 21 52 0.0 0.0 0.00 1.04 0.00 97 1010.5
20260905050420 21 52 0.0 0.0 0.00 1.07 0.00 96 1010.5
20260905045639 21 52 0.0 0.0 0.00 1.07 0.00 96 1010.5
20260905045416 21 52 0.0 0.0 0.03 1.09 0.00 96 1010.6
20260905044639 21 52 0.0 0.0 0.03 1.09 0.00 96 1010.6
20260905044135 21 52 0.0 0.0 0.03 1.12 0.00 96 1010.7
20260905043636 21 52 0.0 0.0 0.03 1.14 0.00 96 1010.6
20260905043136 21 52 0.0 0.0 0.03 1.14 0.00 96 1010.6
20260905042635 21 52 0.0 0.0 0.03 1.17 0.00 96 1010.7
20260905042132 22 52 0.0 0.0 0.03 1.19 0.00 96 1010.7
20260905041634 22 52 0.0 0.0 0.03 1.22 0.00 96 1010.8
20260905041412 22 52 0.0 0.0 0.03 1.22 0.00 96 1010.8
20260905040634 22 52 0.0 0.0 0.03 1.24 0.00 96 1010.8
20260905040135 22 52 0.0 0.0 0.03 1.27 0.00 96 1010.9
20260905035630 22 52 0.0 0.0 0.03 1.27 1.30 96 1010.8
20260905035130 21 52 0.0 0.0 0.00 1.32 1.27 96 1010.8
20260905034606 21 52 0.0 0.0 0.00 1.35 1.27 96 1010.9
20260905034106 21 52 0.0 0.0 0.00 1.37 1.27 96 1011.0
20260905033603 22 52 0.0 0.0 0.00 1.42 1.27 96 1011.1
20260905033103 22 52 0.0 0.0 0.00 1.45 1.27 96 1011.0
20260905032602 22 52 0.0 0.0 0.00 1.50 1.27 96 1011.0
20260905032103 22 52 0.0 0.0 0.00 1.52 1.27 96 1010.9
20260905031604 22 52 0.0 0.0 0.00 1.52 1.27 96 1011.0
20260905031101 22 52 0.0 0.0 0.00 1.52 1.27 96 1011.0
20260905030845 22 52 0.0 0.0 0.00 1.52 1.27 96 1011.0
20260905025603 22 52 0.0 0.0 0.00 1.52 1.27 96 1010.9
20260905025103 22 52 0.0 0.0 0.03 1.52 1.27 96 1010.9
20260905024840 22 52 0.0 0.0 0.03 1.52 1.27 96 1011.0
20260905024102 22 52 0.0 0.0 0.03 1.52 1.27 96 1010.9
20260905023603 22 52 0.0 0.0 0.03 1.52 1.27 96 1010.9
20260905023343 22 52 0.0 0.0 0.03 1.52 1.27 96 1010.9
20260905022600 22 52 0.0 0.0 0.03 1.52 1.27 96 1010.9
20260905022059 22 52 0.0 0.0 0.03 1.52 1.27 96 1010.9
20260905021838 22 52 0.0 0.0 0.03 1.52 1.27 96 1010.9
20260905021101 22 52 0.0 0.0 0.03 1.52 1.27 96 1010.8
20260905020600 22 52 0.0 0.0 0.03 1.52 1.27 96 1010.6
20260905020056 22 52 0.0 0.0 0.03 1.52 1.27 96 1010.4
20260905015557 22 52 0.0 0.0 0.03 1.50 1.27 96 1010.4
20260905015056 22 52 0.0 0.0 0.00 1.50 1.24 96 1010.5
20260905014555 22 52 0.0 0.0 0.00 1.50 1.24 96 1010.6
20260905014056 22 52 0.0 0.0 0.00 1.50 1.24 96 1010.6
20260905013613 22 52 0.0 0.0 0.00 1.50 1.24 96 1010.4
20260905013607 22 52 0.0 0.0 0.00 1.50 1.24 96 1010.4
20260905012549 22 52 0.0 0.0 0.00 1.50 1.24 96 1010.4
20260905012046 22 52 0.0 0.0 0.00 1.50 1.24 96 1010.2
20260905011546 22 52 0.0 0.0 0.00 1.50 1.24 96 1010.1
20260905011046 22 52 0.0 0.0 0.00 1.50 1.24 96 1010.1
20260905010546 22 52 0.0 0.0 0.00 1.50 1.24 96 1010.0
20260905010047 23 52 0.0 0.0 0.00 1.50 1.24 95 1009.9
20260905005546 22 52 0.0 0.0 0.00 1.50 1.24 95 1009.8
20260905005046 23 52 0.0 0.0 0.00 1.50 1.24 96 1009.8
20260905004546 23 52 0.0 0.0 0.00 1.50 1.24 96 1009.8
20260905004324 23 52 0.0 0.0 0.00 1.50 1.24 96 1009.8
20260905003547 23 52 0.0 0.0 0.00 1.50 1.24 95 1010.0
20260905003046 23 52 0.0 0.0 0.00 1.50 1.24 95 1009.9
20260905002545 23 52 0.0 0.0 0.03 1.50 1.24 95 1009.8
20260905002045 23 52 0.0 0.0 0.03 1.50 1.24 95 1009.9
20260905001546 23 52 0.0 0.0 0.03 1.50 1.24 95 1009.9
20260905001045 23 52 0.0 0.0 0.03 1.50 1.24 95 1009.9
20260905000544 23 52 0.0 0.0 0.03 1.50 1.24 95 1009.9
20260905000325 23 52 0.0 0.0 0.03 1.50 1.24 95 1010.0
20260904235545 23 52 0.0 0.0 0.03 1.47 1.24 95 1009.9
20260904235044 23 52 0.0 0.0 0.03 1.47 1.24 95 1009.9
20260904234544 23 52 0.0 0.0 0.03 1.47 1.24 95 1009.9
20260904234044 23 52 0.0 0.0 0.03 1.47 1.24 95 1010.0
20260904233826 23 52 0.0 0.0 0.03 1.47 1.24 95 1010.1
20260904233044 23 52 0.0 0.0 0.03 1.47 1.22 95 1010.2
20260904232544 23 52 0.0 0.0 0.00 1.47 1.22 95 1010.2
20260904232045 23 52 0.0 0.0 0.00 1.47 1.22 95 1010.0
20260904231544 24 52 0.0 0.0 0.00 1.47 1.22 95 1010.1
20260904231046 24 52 0.0 0.0 0.00 1.47 1.22 95 1010.2
20260904230543 24 52 0.0 0.0 0.00 1.47 1.22 95 1010.2
20260904230106 24 52 0.0 0.0 0.00 1.47 1.22 95 1010.0
20260904230058 24 52 0.0 0.0 0.00 1.47 1.22 95 1010.1
20260904225043 24 52 0.0 0.0 0.03 1.47 1.22 95 1010.1
20260904224544 24 52 0.0 0.0 0.03 1.47 1.22 95 1009.9
20260904224309 24 52 0.0 0.0 0.03 1.47 1.22 95 1009.9
20260904223533 24 52 0.0 0.0 0.03 1.47 1.22 95 1009.6
20260904223031 24 52 0.0 0.0 0.03 1.47 1.22 95 1009.6
20260904222531 24 52 0.0 0.0 0.03 1.47 1.22 95 1009.9
20260904222031 24 52 0.0 0.0 0.03 1.47 1.22 95 1010.1
20260904221532 24 52 0.0 0.0 0.03 1.47 1.22 94 1010.2
20260904221031 24 52 0.0 0.0 0.03 1.47 1.22 95 1010.1
20260904220530 24 52 0.0 0.0 0.03 1.47 1.22 95 1010.4
20260904220032 24 52 0.0 0.0 0.03 1.45 1.22 94 1010.5
20260904215530 23 52 0.0 0.0 0.03 1.45 1.22 94 1010.6
20260904215056 23 52 0.0 0.0 0.00 1.45 1.19 94 1010.7
20260904215048 23 52 0.0 0.0 0.00 1.45 1.19 94 1010.6
20260904214018 23 52 0.0 0.0 0.00 1.45 1.19 94 1010.7
20260904213515 23 52 0.0 0.0 0.00 1.45 1.19 94 1010.6
20260904213015 23 52 0.0 0.0 0.00 1.45 1.19 93 1010.5
20260904212514 23 52 0.0 0.0 0.00 1.45 1.19 93 1010.7
20260904212012 23 52 0.0 1.6 0.03 1.45 1.19 93 1010.7
20260904211511 23 52 0.0 3.2 0.03 1.45 1.19 92 1010.7
20260904211247 24 52 0.0 4.8 0.03 1.45 1.19 92 1010.8
20260904210509 24 52 0.0 4.8 0.03 1.45 1.19 91 1010.9
20260904210010 24 275 0.0 8.0 0.03 1.42 1.19 90 1011.0
20260904205504 25 271 0.0 8.0 0.03 1.42 1.19 87 1010.7
20260904205006 25 345 1.6 8.0 0.03 1.42 1.19 85 1011.3
20260904204505 26 279 3.2 9.7 0.03 1.42 1.19 82 1011.5
20260904204003 28 248 4.8 9.7 0.03 1.42 1.19 82 1011.7
20260904203503 28 35 0.0 0.0 0.03 1.42 1.19 81 1011.1
20260904203004 28 35 0.0 0.0 0.03 1.42 1.19 81 1010.8
20260904202504 29 35 0.0 0.0 0.05 1.42 1.19 79 1010.9
20260904202244 29 35 0.0 0.0 0.03 1.42 1.17 78 1010.9
20260904201503 30 35 0.0 0.0 0.03 1.42 1.17 77 1010.9
20260904201003 30 35 0.0 0.0 0.03 1.42 1.17 76 1010.9
20260904200505 30 38 0.0 1.6 0.03 1.42 1.17 76 1010.7
20260904200003 30 38 0.0 1.6 0.03 1.40 1.17 75 1010.7
20260904195503 30 38 0.0 3.2 0.03 1.40 1.17 74 1010.5
20260904194957 31 45 1.6 3.2 0.03 1.40 1.17 72 1010.4
20260904194458 31 45 0.0 3.2 0.03 1.40 1.17 74 1010.3
20260904193958 31 45 0.0 1.6 0.03 1.40 1.17 72 1010.4
20260904193732 31 45 0.0 1.6 0.03 1.40 1.17 69 1010.3
20260904192951 32 45 1.6 4.8 0.03 1.40 1.17 65 1010.3
20260904192448 32 45 1.6 4.8 0.03 1.40 1.14 65 1010.5
20260904191945 32 324 0.0 6.4 0.03 1.40 1.14 65 1010.5
20260904191446 32 312 0.0 6.4 0.03 1.40 1.14 66 1010.4
20260904190945 32 295 1.6 4.8 0.03 1.40 1.14 65 1010.5
20260904190440 32 268 1.6 4.8 0.03 1.40 1.14 63 1010.3
20260904190222 32 73 1.6 4.8 0.03 1.37 1.14 65 1010.5
20260904185442 32 152 1.6 6.4 0.03 1.37 1.14 63 1010.7
20260904184940 32 250 1.6 6.4 0.05 1.37 1.14 65 1010.7
20260904184439 32 206 3.2 6.4 0.05 1.37 1.14 63 1010.9
20260904184218 32 281 3.2 6.4 0.05 1.37 1.14 63 1011.1
20260904183438 32 319 1.6 6.4 0.05 1.37 1.14 64 1011.2
20260904183218 32 283 1.6 6.4 0.05 1.37 1.14 63 1011.3
20260904182437 32 0 1.6 4.8 0.03 1.37 1.12 65 1011.3
20260904182221 32 329 0.0 4.8 0.03 1.37 1.12 66 1011.4
20260904181437 32 173 0.0 4.8 0.03 1.37 1.12 65 1011.4
20260904180938 32 71 1.6 6.4 0.05 1.37 1.12 63 1011.5
20260904180437 32 62 1.6 6.4 0.05 1.37 1.12 62 1011.5
20260904175938 32 31 1.6 4.8 0.05 1.32 1.12 64 1011.5
20260904175437 32 358 0.0 3.2 0.05 1.32 1.12 65 1011.6
20260904175218 32 34 1.6 6.4 0.03 1.32 1.09 63 1011.6
20260904174436 32 289 0.0 6.4 0.03 1.32 1.09 64 1011.6
20260904173939 32 338 3.2 6.4 0.05 1.32 1.09 64 1011.6
20260904173436 32 58 3.2 6.4 0.05 1.32 1.09 64 1011.7
20260904172936 32 55 1.6 6.4 0.05 1.32 1.09 63 1011.7
20260904172436 32 144 3.2 6.4 0.05 1.32 1.09 61 1011.9
20260904171935 32 55 1.6 6.4 0.05 1.32 1.09 63 1011.9
20260904171435 32 39 3.2 6.4 0.05 1.32 1.09 63 1011.9
20260904170937 32 59 1.6 6.4 0.03 1.32 1.07 63 1012.0
20260904170435 32 316 1.6 6.4 0.05 1.32 1.07 61 1011.9
20260904165934 32 0 1.6 8.0 0.05 1.27 1.07 64 1011.8
20260904165436 32 307 3.2 9.7 0.05 1.27 1.07 63 1011.9
20260904164934 32 62 3.2 9.7 0.05 1.27 1.07 63 1012.0
20260904164432 32 321 3.2 8.0 0.08 1.27 1.04 61 1012.1
20260904163931 32 216 3.2 6.4 0.05 1.27 1.04 64 1012.1
20260904163430 32 285 3.2 6.4 0.05 1.27 1.04 63 1012.4
20260904162930 32 28 3.2 9.7 0.05 1.27 1.04 63 1012.5
20260904162430 32 255 3.2 9.7 0.05 1.27 1.04 66 1012.6
20260904161928 32 244 3.2 8.0 0.08 1.27 1.04 64 1012.5
20260904161429 31 305 1.6 6.4 0.08 1.27 1.04 63 1012.5
20260904160926 31 52 3.2 6.4 0.08 1.27 1.04 65 1012.6
20260904160425 31 259 3.2 11.3 0.05 1.27 1.02 65 1012.7
20260904155946 31 124 3.2 6.4 0.08 1.19 1.02 65 1012.7
20260904155937 31 0 1.6 11.3 0.08 1.19 1.02 66 1012.6
20260904154923 31 283 3.2 8.0 0.08 1.19 1.02 65 1012.7
20260904154422 31 258 1.6 8.0 0.05 1.19 0.99 65 1012.6
20260904153918 31 82 4.8 8.0 0.05 1.19 0.99 65 1012.5
20260904153658 31 73 1.6 4.8 0.05 1.19 0.99 67 1012.6
20260904152915 31 276 1.6 4.8 0.05 1.19 0.99 69 1012.6
20260904152412 31 41 0.0 6.4 0.05 1.19 0.99 70 1012.6
20260904152150 31 41 1.6 8.0 0.03 1.19 0.97 69 1012.6
20260904151409 31 72 3.2 8.0 0.05 1.19 0.97 67 1012.8
20260904150908 31 258 1.6 8.0 0.05 1.19 0.97 68 1012.8
20260904150408 31 235 1.6 8.0 0.05 1.19 0.97 68 1012.8
20260904150144 31 276 3.2 6.4 0.03 1.17 0.94 70 1013.0
20260904145404 31 42 3.2 9.7 0.03 1.17 0.94 70 1013.0
20260904144904 31 1 3.2 9.7 0.03 1.17 0.94 70 1013.0
20260904144710 31 8 3.2 6.4 0.03 1.17 0.94 70 1012.9
20260904144418 30 59 1.6 8.0 0.03 1.17 0.94 70 1013.0
20260904143405 30 217 1.6 6.4 0.03 1.17 0.94 72 1012.8
20260904142905 30 296 1.6 6.4 0.03 1.17 0.94 73 1012.8
20260904142402 30 0 0.0 4.8 0.05 1.17 0.94 74 1012.8
20260904141902 30 292 1.6 4.8 0.05 1.17 0.94 75 1012.9
20260904141403 30 333 0.0 3.2 0.03 1.17 0.91 76 1012.8
20260904140904 29 350 0.0 3.2 0.03 1.17 0.91 77 1013.0
20260904140401 30 350 0.0 3.2 0.03 1.17 0.91 76 1012.9
20260904135902 29 331 0.0 3.2 0.03 1.14 0.91 76 1012.8
20260904135402 29 331 0.0 3.2 0.03 1.14 0.91 77 1012.9
20260904134902 28 341 0.0 4.8 0.03 1.14 0.91 79 1012.9
20260904134403 29 351 0.0 6.4 0.05 1.14 0.91 79 1012.8
20260904133902 29 340 0.0 6.4 0.05 1.14 0.91 80 1012.8
20260904133402 29 321 0.0 4.8 0.05 1.14 0.91 79 1012.9
20260904132901 28 190 0.0 4.8 0.08 1.14 0.91 82 1012.9
20260904132644 27 190 0.0 4.8 0.05 1.14 0.89 84 1012.8
20260904131900 27 148 0.0 1.6 0.05 1.14 0.89 86 1012.7
20260904131403 26 147 0.0 1.6 0.08 1.14 0.89 87 1012.7
20260904130917 26 148 0.0 0.0 0.08 1.14 0.89 88 1013.1
20260904130910 26 147 0.0 0.0 0.08 1.14 0.89 87 1012.8
20260904125853 26 148 0.0 0.0 0.10 1.04 0.89 87 1013.1
20260904125354 25 148 0.0 1.6 0.10 1.04 0.89 92 1013.0
20260904124853 25 147 0.0 1.6 0.10 1.04 0.89 93 1013.1
20260904124353 25 148 0.0 0.0 0.08 1.04 0.86 96 1013.1
20260904123854 23 148 0.0 0.0 0.08 1.04 0.86 96 1013.1
20260904123351 23 147 0.0 0.0 0.10 1.04 0.86 97 1013.0
20260904122851 23 148 0.0 1.6 0.08 1.04 0.84 97 1013.0
20260904122351 23 148 0.0 1.6 0.08 1.04 0.84 97 1012.8
20260904121840 22 148 0.0 0.0 0.08 1.04 0.84 97 1012.8
20260904121340 22 147 0.0 1.6 0.05 1.04 0.81 97 1012.7
20260904120840 22 148 0.0 1.6 0.05 1.04 0.81 97 1012.8
20260904120401 21 147 0.0 0.0 0.05 0.99 0.79 97 1012.8
20260904120354 21 147 0.0 1.6 0.08 1.04 0.79 97 1012.7
20260904115340 21 147 0.0 0.0 0.05 0.99 0.79 97 1012.8
20260904114836 21 147 0.0 3.2 0.05 0.99 0.79 97 1012.9
20260904114613 21 147 0.0 3.2 0.05 0.99 0.79 97 1012.8
20260904113833 21 147 0.0 3.2 0.03 0.99 0.76 97 1012.8
20260904113333 21 147 1.6 3.2 0.03 0.99 0.76 97 1012.7
20260904112834 21 147 0.0 1.6 0.05 0.99 0.76 97 1012.7
20260904112613 21 147 0.0 1.6 0.05 0.99 0.76 97 1012.6
20260904111833 21 147 0.0 0.0 0.05 0.99 0.76 97 1012.7
20260904111330 21 147 0.0 0.0 0.05 0.99 0.76 97 1012.7
20260904110831 21 147 0.0 0.0 0.05 0.99 0.76 97 1012.7
20260904110332 21 147 0.0 1.6 0.03 0.99 0.74 97 1012.6
20260904105832 21 147 0.0 1.6 0.03 0.97 0.74 97 1012.7
20260904105331 20 147 0.0 1.6 0.05 0.97 0.74 97 1012.8
20260904104833 21 147 0.0 1.6 0.05 0.97 0.74 97 1012.3
20260904104356 21 147 0.0 0.0 0.05 0.97 0.74 97 1012.7
20260904104347 21 147 0.0 1.6 0.05 0.97 0.74 97 1012.5
20260904103330 21 147 0.0 1.6 0.05 0.97 0.74 97 1012.5
20260904102831 21 147 0.0 1.6 0.03 0.97 0.71 97 1012.4
20260904102331 21 147 0.0 1.6 0.03 0.97 0.71 97 1012.3
20260904101831 21 147 0.0 3.2 0.05 0.97 0.71 97 1012.0
20260904101332 21 147 0.0 3.2 0.05 0.97 0.71 97 1011.9
20260904101111 21 147 1.6 3.2 0.05 0.97 0.71 97 1012.0
20260904100332 21 147 3.2 4.8 0.05 0.97 0.71 97 1012.1
20260904095832 21 148 0.0 4.8 0.08 0.89 0.71 97 1011.7
20260904095332 21 148 1.6 3.2 0.05 0.89 0.69 97 1011.6
20260904094832 21 149 0.0 0.0 0.05 0.89 0.69 97 1011.4
20260904094333 21 149 0.0 0.0 0.05 0.89 0.69 97 1011.3
20260904093831 21 149 0.0 0.0 0.05 0.89 0.69 96 1011.4
20260904093330 21 149 0.0 0.0 0.05 0.89 0.69 97 1011.3
20260904092833 21 149 0.0 0.0 0.08 0.89 0.69 97 1011.2
20260904092329 21 149 0.0 1.6 0.08 0.89 0.69 96 1011.1
20260904091852 21 149 0.0 1.6 0.08 0.89 0.66 97 1011.0
20260904091843 20 149 0.0 1.6 0.05 0.89 0.66 96 1011.1
20260904091105 20 149 0.0 0.0 0.08 0.89 0.66 96 1011.1
20260904090350 20 149 0.0 0.0 0.05 0.84 0.64 96 1011.3
20260904090341 20 149 0.0 0.0 0.08 0.89 0.66 96 1011.3
20260904085326 20 149 0.0 0.0 0.05 0.84 0.64 96 1011.4
20260904084824 20 149 0.0 0.0 0.08 0.84 0.64 96 1011.4
20260904084324 21 149 0.0 1.6 0.08 0.84 0.64 97 1011.5
20260904084101 21 149 0.0 1.6 0.08 0.84 0.64 97 1011.5
20260904083324 21 149 0.0 0.0 0.10 0.84 0.64 96 1011.5
20260904082823 21 149 0.0 0.0 0.08 0.84 0.61 96 1011.6
20260904082324 21 149 0.0 0.0 0.08 0.84 0.61 96 1011.5
20260904081824 21 149 0.0 0.0 0.08 0.84 0.61 96 1011.5
20260904081324 21 149 0.0 1.6 0.08 0.84 0.58 96 1011.5
20260904080823 21 149 0.0 1.6 0.08 0.84 0.58 96 1011.6
20260904080323 21 149 0.0 0.0 0.10 0.84 0.58 96 1011.5
20260904075823 21 149 0.0 0.0 0.10 0.74 0.58 96 1011.5
20260904075325 21 149 0.0 0.0 0.10 0.74 0.58 96 1011.5
20260904074824 21 149 0.0 0.0 0.08 0.74 0.56 96 1011.5
20260904074603 21 149 0.0 0.0 0.10 0.74 0.56 96 1011.5
20260904073825 21 149 0.0 1.6 0.10 0.74 0.56 96 1011.5
20260904073324 21 149 0.0 1.6 0.08 0.74 0.53 96 1011.5
20260904072823 21 149 0.0 3.2 0.10 0.74 0.53 96 1011.6
20260904072604 21 149 1.6 3.2 0.10 0.74 0.53 96 1011.6
20260904071822 21 149 0.0 0.0 0.10 0.74 0.53 96 1011.7
20260904071322 21 149 0.0 0.0 0.10 0.74 0.51 96 1011.8
20260904070822 21 149 0.0 0.0 0.10 0.74 0.51 96 1011.7
20260904070323 21 149 0.0 0.0 0.10 0.74 0.48 96 1011.8
20260904065824 21 149 0.0 0.0 0.10 0.64 0.48 96 1011.9
20260904065323 21 149 0.0 0.0 0.13 0.64 0.48 96 1011.9
20260904064823 21 149 0.0 3.2 0.13 0.64 0.48 96 1011.9
20260904064323 21 149 0.0 3.2 0.13 0.64 0.46 96 1011.8
20260904063822 21 154 3.2 3.2 0.13 0.64 0.46 96 1011.6
20260904063323 21 154 0.0 0.0 0.13 0.64 0.43 96 1011.3
20260904063101 21 154 0.0 0.0 0.13 0.64 0.43 96 1011.0
20260904062321 21 154 0.0 0.0 0.13 0.64 0.43 96 1010.9
20260904061821 21 154 0.0 0.0 0.15 0.64 0.43 96 1010.8